sim
Sign-in with your pilot id or email,
or register
Callsign
Passwort

Schedule Details

Flight Number: RYR1584 (2)
Departure: Leeds Bradford Airport (EGNM) at 07:05
Arrival: Fuerteventura Airport (GCFV) at 11:30
Route: Ryanair Passenger Schedule. Enter filed route here before submitting Pirep.

Weather Information
Getting current METAR information for EGNM 182020Z 08007KT 010V160 CAVOK 09/06 Q1028
Getting current METAR information for GCFV 182000Z 36016KT 9999 FEW045 18/11 Q1019

Schedule Frequency

Route Map